Regional Weather Roundup
Issued by NWS Sterling, VA

Home | Current Version | Previous Version | Text Only | Print | Product List | Glossary Off
Versions: 1 2 3 4 5 6 7 8 9 10 11 12 13 14 15 16 17 18 19 20 21 22 23 24 25 26 27 28 29 30 31 32 33 34 35 36 37 38 39 40 41 42 43 44 45 46 47 48 49 50

386
ASUS41 KLWX 261711
RWRLWX

REGIONAL WEATHER ROUNDUP
NATIONAL WEATHER SERVICE BALTIMORE MD/WASHINGTON DC
100 PM EDT SAT MAY 26 2018

Note: "FAIR" indicates few or no clouds below 12,000 feet
with no significant weather and/or obstructions to visibility.
 TC=TEMPERATURE CELSIUS

 * =Non NWS site. Station does not report precipitation (e.g. rain,
    snow, etc.), thunder, or fog.

DCZ001-MDZ009-015-VAZ040>042-051-053>054-261800-
WASHINGTON METRO

CITY           SKY/WX    TMP DP  RH WIND       PRES   REMARKS
WASHINGTON NAT FAIR      85  70  60 S13       29.86F
DULLES         PTSUNNY   87  70  56 S5        29.86F HX  92
ANDREWS AFB    FAIR      87  69  54 SW9       29.86F HX  90
FT BELVOIR     FAIR      87  71  59 SE8       29.87F HX  92
QUANTICO       FAIR      81  75  82 S12       29.87F
COLLEGE PARK*  FAIR      87  69  54 S6        29.85F HX  91
LEESBURG*      FAIR      88  72  58 W5        29.88F HX  94
MANASSAS*      FAIR      86  70  58 VRB5      29.87F HX  90
GAITHERSBURG*  FAIR      87  69  54 SW5       29.89F HX  91

$$

MDZ006>007-011-014-261800-
BALTIMORE METRO

CITY           SKY/WX    TMP DP  RH WIND       PRES   REMARKS
BWI AIRPORT    FAIR      88  69  53 SW7       29.84F HX  92
MD SCIENCE CTR   N/A     94  68  42 MISG      29.84S HX  98
MARTIN STATE   MOSUNNY   84  75  74 SE9       29.86F HX  92
ANNAPOLIS      FAIR     N/A N/A N/A SE9       29.85F
FORT MEADE*      N/A     86  68  54 SW3       29.88S

$$

MDZ012-015-019>023-261800-
MARYLAND EASTERN SHORE

CITY           SKY/WX    TMP DP  RH WIND       PRES   REMARKS
OCEAN CITY     FAIR      85  70  60 S9G21     29.88F
SALISBURY      FAIR      86  70  58 SW15G23   29.88F HX  90
BAY BRIDGE AP* FAIR      88  72  58 S9        29.86S HX  94
CAMBRIDGE*     SUNNY     86  72  62 W8        29.87F HX  92
EASTON*        SUNNY     84  70  61 SW13      29.91S

$$

MDZ017>025-261800-
SOUTHERN MARYLAND

CITY           SKY/WX    TMP DP  RH WIND       PRES   REMARKS
PATUXENT RIVER FAIR      90  70  51 SW13      29.87F HX  95
ST INIGOES     FAIR      87  72  60 SW13      29.87F HX  93
LEONARDTOWN*   FAIR      84  70  61 SW7G16    29.90S

$$

MDZ003>005-261800-
NORTH CENTRAL MARYLAND

CITY           SKY/WX    TMP DP  RH WIND       PRES   REMARKS
FREDERICK*     PTSUNNY   90  63  40 NW9       29.88F HX  90
HAGERSTOWN APT FAIR      87  63  44 W7        29.87F
WESTMINSTER*   FAIR      88  66  48 W8        29.88S HX  90

$$

MDZ501>502-261800-
WESTERN MARYLAND

CITY           SKY/WX    TMP DP  RH WIND       PRES   REMARKS
OAKLAND*       FAIR      73  59  60 W6        30.00S
CUMBERLAND*    FAIR      84  68  58 CALM      29.90F

$$

VAZ025>031-261800-
SHENANDOAH VALLEY

CITY           SKY/WX    TMP DP  RH WIND       PRES   REMARKS
WINCHESTER*    FAIR      84  68  58 SW7       29.90F
FRONT ROYAL*   FAIR      86  70  58 SW5       29.88S HX  90
LURAY*         FAIR      86  66  51 SW3       29.89F
NEW MARKET*    FAIR      85  65  51 CALM      29.86F
STAUNTON*      FAIR      81  67  62 S8        29.94F
WAYNESBORO*    FAIR      81  67  62 CALM      29.94F

$$

WVZ021-048>050-054>055-261800-
EASTERN WEST VIRGINIA PANHANDLE

CITY           SKY/WX    TMP DP  RH WIND       PRES   REMARKS
MARTINSBURG    PTSUNNY   85  67  54 VRB3      29.86F
PETERSBURG*    FAIR      83  66  57 S5        29.88F

$$

VAZ036>039-050-261800-
CENTRAL FOOTHILLS

CITY           SKY/WX    TMP DP  RH WIND       PRES   REMARKS
CHARLOTTESVILL FAIR      84  69  60 VRB6      29.90F
CULPEPER*      FAIR      88  69  52 SW8       29.88F HX  92
ORANGE*        FAIR      82  70  65 SW8G17    29.89F
GORDONSVILLE*  FAIR      83  72  69 SW8       29.90S
WARRENTON*     FAIR      88  67  50 S5        29.88S HX  91

$$

VAZ055>057-261800-
NORTH AND CENTRAL PIEDMONT

CITY           SKY/WX    TMP DP  RH WIND       PRES   REMARKS
FREDERICKSBRG* FAIR      86  71  60 SW10G17   29.88S HX  90
STAFFORD*      FAIR      86  72  62 SW6       29.92S HX  92

$$

NCZ024-NYZ072-PAZ021-071-VAZ022-071-261800-
OTHER REGIONAL OBSERVATIONS

CITY           SKY/WX    TMP DP  RH WIND       PRES   REMARKS
NEW YORK CITY  FAIR      88  69  53 CALM      29.82F HX  92
PHILADELPHIA   PTSUNNY   85  69  58 SW10      29.83F
PITTSBURGH     PTSUNNY   83  56  39 W6        29.88F
ROANOKE        LGT RAIN  77  67  71 W9        29.96F
RICHMOND       PTSUNNY   86  70  58 SW16      29.90F HX  90
RALEIGH        PTSUNNY   81  71  71 SW13      29.97F

$$

ANZ530>537-261800-
MARINE OBSERVATIONS

STATION/POSITION TIME  TEMP    WIND        PRES
                       AIR SEA DIR/SP/G
                 (UTC) (F)     (DEG/KT/KT) (MB)
THOMAS PT LIGHT  1700   76 70  160/ 13/ 14 1011.8F
BALT KEY BRIDGE  1648   80     120/  8/  9 1010.5F
COVE POINT       1648   83     260/  9/ 15 1012.1F
LEWISETTA        1648   83 73  270/ 12/ 15 1012.0F
SOLOMONS ISLAND  1648   82 72  240/  9/ 13 1011.5F
PINEY POINT      1648          270/ 11/ 13   N/A

$$





USA.gov is the U.S. government's official web portal to all federal, state and local government web resources and services.